Regional Weather Roundup
Issued by NWS

Home | Current Version | Previous Version | Graphics & Text | Print | Product List | Glossary On
Versions: 1 2 3 4 5 6 7 8 9 10 11 12 13 14 15 16 17 18 19 20 21 22 23 24 25 26 27 28 29 30 31 32 33 34 35 36 37 38 39 40 41 42 43 44 45 46 47 48 49 50
653
ASUS45 KABQ 141110
RWRNM
NEW MEXICO REGIONAL WEATHER ROUNDUP
NATIONAL WEATHER SERVICE ALBUQUERQUE NM
400 AM MST SUN FEB 14 2016

NOTE: "FAIR" MEANS FEW OR NO CLOUDS BELOW 12,000 FEET AGL WITH NO
       SIGNIFICANT WEATHER OR OBSTRUCTIONS TO VISION.

      THIS PRODUCT IS RELEASED AS TWO VERSIONS.  ONE VERSION NEAR
      THE TOP OF THE HOUR CONTAINING PRELIMINARY DATA FROM ALBUQUERQUE
      AND OTHER STATIONS.  A FINAL VERSION WITH ADDITIONAL DATA IS
      ISSUED ABOUT 10 MINUTES AFTER THE HOUR.

NMZ501-503-504-510>518-141200-
NORTHWEST PLATEAU/NORTHCENTRAL MOUNTAINS

CITY           SKY/WX    TMP DP  RH WIND       PRES   REMARKS
FARMINGTON     FAIR      34  22  61 W7        30.12F WCI  28
LOS ALAMOS     FAIR      39  15  38 E3        30.12S
SANTA FE       FAIR      40  16  37 W9        30.09S WCI  34
TAOS           FAIR      27  19  74 CALM      30.13S
ANGEL FIRE     FAIR      19  14  80 NE3       30.14S

$$
NMZ402-403-502-505>509-141200-
WESTCENTRAL MOUNTAINS/SOUTHWEST MOUNTAINS

CITY           SKY/WX    TMP DP  RH WIND       PRES   REMARKS
GALLUP         FAIR      25  20  81 CALM      30.19F
GRANTS         FAIR      23  15  70 NW10      30.18F WCI  13
SILVER CITY      N/A     41  10  28 NW14      30.11F

$$
NMZ407-409-411-412-141200-
SOUTHERN DESERTS

CITY           SKY/WX    TMP DP  RH WIND       PRES   REMARKS
LORDSBURG      FAIR      36  16  44 NW3       30.06F
DEMING         FAIR      39  13  34 CALM      30.05F
LAS CRUCES     FAIR      40  12  31 NW8       30.05S WCI  35
HOLLOMAN AFB   FAIR      33  10  38 NW6       30.02R WCI  27
ALAMOGORDO     FAIR      36  16  44 S6        30.03R WCI  31
T OR C         FAIR      46  12  25 N6        30.06F

$$
NMZ519>523-141200-
CENTRAL VALLEYS/CENTRAL HIGHLANDS

CITY           SKY/WX    TMP DP  RH WIND       PRES   REMARKS
ALBUQUERQUE    MOCLDY    44  15  31 NW3       30.11S
DOUBLE EAGLE   FAIR      36  14  40 CALM      30.12S
MORIARTY ARPT  FAIR      32  13  44 N3        30.09F
CLINES CORNERS FAIR      34  16  47 NW13      30.07F WCI  25
BELEN          FAIR      29  12  48 N8        30.12S WCI  21
SOCORRO        FAIR      40  11  30 NW7       30.09R

$$
NMZ524>526-539-540-141200-
SOUTHCENTRAL MOUNTAINS

CITY           SKY/WX    TMP DP  RH WIND       PRES   REMARKS
RUIDOSO          N/A     41   7  24 NW9       30.11F

$$
NMZ527>531-141200-
NORTHEAST HIGHLANDS/NORTHEAST PLAINS

CITY           SKY/WX    TMP DP  RH WIND       PRES   REMARKS
LAS VEGAS      FAIR      38  12  34 N7        30.06S WCI  33
RATON          FAIR      34  15  46 N14       30.04S WCI  25
CLAYTON        FAIR      36  26  67 N18G26    30.02F WCI  26

$$
NMZ532>537-141200-
EASTCENTRAL PLAINS

CITY           SKY/WX    TMP DP  RH WIND       PRES   REMARKS
TUCUMCARI      FAIR      35  19  52 E5        29.99R WCI  31
CANNON AFB     FAIR      44  17  35 N13       29.95R
CLOVIS AIRPORT FAIR      43  18  36 NW14      29.97R

$$
NMZ028-029-538-141200-
SOUTHEAST PLAINS

CITY           SKY/WX    TMP DP  RH WIND       PRES   REMARKS
ROSWELL        FAIR      46  14  27 W7        29.95F
ARTESIA        FAIR      41  18  38 NW9       29.97S
CARLSBAD       FAIR      34  23  64 NW7       29.96S WCI  28
HOBBS          FAIR      37  37 100 SW6       29.97F WCI  33


$$




USA.gov is the U.S. government's official web portal to all federal, state and local government web resources and services.